This demonstration page uses our WeatherBlox Daily Observations layout. Learn more.

39.92423, -83.80882

Hourly Observations for April 5, 2017

Temp ( °F °C ) Dew Point ( °F °C ) Humidity (%) Winds ( mph kmh ) Pressure ( in mb ) Visibility ( mi km ) Precip ( " mm )
12:56 am 00:56 Mostly Clear 44 6.7 40 4.4 85 85 N 6 9 29.93 1014 10 16.0934 0 0
1:56 am 01:56 Mostly Clear 43 6.1 39 3.9 86 86 NE 7 11 29.93 1014 10 16.0934 0 0
2:56 am 02:56 Clear 41 5 39 3.9 93 93 NE 5 7 29.93 1013 10 16.0934 0 0
3:56 am 03:56 Clear 41 5 39 3.9 93 93 E 5 7 29.92 1013 10 16.0934 0 0
5:56 am 05:56 Clear 41 5 39 3.9 93 93 E 8 13 29.91 1013 10 16.0934 0 0
6:56 am 06:56 Cloudy 44 6.7 41 5 89 89 E 10 17 29.91 1013 10 16.0934 0 0
7:56 am 07:56 Mostly Cloudy 44 6.7 41 5 89 89 E 15 24 29.91 1013 10 16.0934 0 0
8:56 am 08:56 Cloudy 46 7.8 42 5.6 86 86 E 20 31 29.9 1012 10 16.0934 0 0.0254
9:56 am 09:56 Mostly Sunny 48 8.9 43 6.1 83 83 E 20 31 29.85 1011 10 16.0934 0 0
10:56 am 10:56 Mostly Cloudy 53 11.7 45 7.2 74 74 ESE 24 39 29.81 1010 10 16.0934 0 0
11:56 am 11:56 Mostly Cloudy 57 13.9 47 8.3 69 69 ESE 20 31 29.77 1008 10 16.0934 0 0
12:56 pm 12:56 Mostly Sunny 61 16.1 47 8.3 60 60 ESE 22 35 29.72 1007 10 16.0934 0 0
1:56 pm 13:56 Mostly Sunny 64 17.8 49 9.4 58 58 ESE 22 35 29.67 1005 10 16.0934 0 0
2:56 pm 14:56 Mostly Cloudy 67 19.4 50 10 55 55 SE 23 37 29.61 1003 10 16.0934 0 0
3:56 pm 15:56 Sunny 71 21.7 51 10.6 49 49 ESE 21 33 29.55 1001 10 16.0934 0 0
4:56 pm 16:56 Mostly Cloudy 72 22.2 53 11.7 52 52 SE 15 24 29.51 999 10 16.0934 0 0
5:56 pm 17:56 Sunny 71 21.7 52 11.1 51 51 SE 21 33 29.4 996 10 16.0934 0 0
6:54 pm 18:54 Cloudy with Nearby Thunderstorms 68 20 54 12 60 60 SE 12 19 29.35 994 10 16.0934 0 0.0254
6:56 pm 18:56 Cloudy with Light Thunderstorms 68 20 54 12.2 61 61 SSW 15 24 29.42 996 10 16.0934 0 0.0254
7:04 pm 19:04 Windy with Storms Likely 61 16 54 12 77 77 W 31 50 29.44 997 10 16.0934 0 0.0254
7:16 pm 19:16 Cloudy with Thunderstorms 57 14 54 12 88 88 WNW 23 37 29.44 997 4 6.43736 0.12 3.048
7:56 pm 19:56 Cloudy with Nearby Thunderstorms 57 13.9 55 12.8 93 93 ENE 7 11 29.48 998 9 14.48406 0.21 5.334
8:07 pm 20:07 Cloudy with Light Rain 55 13 55 13 100 100 NNE 7 11 29.47 998 10 16.0934 0 0.0254
8:16 pm 20:16 Cloudy with Light Thunderstorms 57 14 55 13 94 94 NE 8 13 29.47 998 10 16.0934 0 0.0254
8:43 pm 20:43 Cloudy with Nearby Thunderstorms 55 13 55 13 100 100 ENE 12 19 29.47 998 10 16.0934 0.04 1.016
8:56 pm 20:56 Cloudy with Nearby Thunderstorms 56 13.3 54 12.2 93 93 NE 9 15 29.46 998 10 16.0934 0.05 1.27
9:04 pm 21:04 Mostly Cloudy with Light Rain 55 13 54 12 94 94 NNE 7 11 29.44 997 10 16.0934 0.01 0.254
9:40 pm 21:40 Partly Cloudy with Nearby Thunderstorms 55 13 54 12 94 94 NE 13 20 29.44 997 10 16.0934 0.01 0.254
9:56 pm 21:56 Mostly Cloudy with Light Thunderstorms 53 11.7 51 10.6 93 93 ENE 16 26 29.43 997 8 12.87472 0.02 0.508
10:13 pm 22:13 Partly Cloudy 52 11 50 10 94 94 E 12 19 29.47 998 10 16.0934 0 0.0254
10:56 pm 22:56 Mostly Cloudy 50 10 49 9.4 96 96 NNW 9 15 29.44 997 9 14.48406 0.01 0.254
11:56 pm 23:56 Partly Cloudy with Mist and Fog 49 9.4 48 8.9 97 97 SSE 5 7 29.43 997 4 6.43736 0 0

Powered by AerisWeather